QPF
0.00 0.00 0.00 0.00 0.00 0.00 0.00 0.00 0.00 0.00 0.00 0.00 0.01 0.01 0.01 0.01 0.01 0.01 0.02 0.01 0.02 0.02 0.03 0.04 0.04 0.03 0.02 0.02 0.03 0.04 0.06 0.09 0.07 0.04 0.04 0.06 0.06 0.05 0.05 0.05 0.05 0.04 0.04 0.05
0.00 0.00 0.00 0.00 0.00 0.00 0.00 0.00 0.00 0.00 0.00 0.00 0.01 0.01 0.01 0.01 0.01 0.01 0.01 0.01 0.02 0.02 0.02 0.03 0.03 0.05 0.05 0.04 0.03 0.05 0.08 0.10 0.09 0.05 0.05 0.07 0.06 0.05 0.05 0.04 0.04 0.04 0.04 0.06
0.00 0.00 0.00 0.00 0.00 0.00 0.00 0.00 0.00 0.00 0.00 0.01 0.01 0.01 0.01 0.01 0.01 0.01 0.01 0.01 0.01 0.01 0.02 0.02 0.03 0.05 0.05 0.04 0.04 0.07 0.09 0.10 0.09 0.05 0.04 0.04 0.05 0.06 0.05 0.05 0.05 0.05 0.04 0.05
0.00 0.00 0.00 0.00 0.00 0.00 0.00 0.00 0.00 0.00 0.00 0.00 0.00 0.01 0.01 0.01 0.00 0.00 0.00 0.01 0.01 0.02 0.02 0.02 0.02 0.05 0.05 0.05 0.05 0.07 0.08 0.08 0.08 0.06 0.05 0.04 0.04 0.04 0.03 0.03 0.04 0.05 0.04 0.05
0.00 0.00 0.00 0.00 0.00 0.00 0.00 0.00 0.00 0.00 0.00 0.00 0.00 0.00 0.00 0.00 0.00 0.00 0.01 0.01 0.01 0.01 0.02 0.02 0.03 0.07 0.07 0.06 0.06 0.08 0.08 0.07 0.07 0.06 0.05 0.04 0.04 0.04 0.03 0.03 0.02 0.02 0.03 0.03
0.00 0.00 0.00 0.00 0.00 0.00 0.00 0.00 0.00 0.00 0.00 0.00 0.00 0.00 0.00 0.00 0.00 0.01 0.01 0.01 0.01 0.02 0.03 0.03 0.05 0.07 0.06 0.07 0.07 0.07 0.08 0.07 0.06 0.06 0.05 0.04 0.04 0.04 0.04 0.03 0.02 0.02 0.02 0.02
0.00 0.00 0.00 0.00 0.00 0.00 0.00 0.00 0.00 0.01 0.00 0.00 0.00 0.00 0.00 0.00 0.01 0.01 0.02 0.02 0.02 0.03 0.03 0.08 0.11 0.10 0.08 0.07 0.09 0.09 0.07 0.07 0.06 0.06 0.06 0.05 0.04 0.03 0.03 0.02 0.02 0.01 0.01 0.01
0.00 0.00 0.00 0.00 0.00 0.00 0.00 0.00 0.00 0.00 0.00 0.00 0.00 0.00 0.00 0.01 0.01 0.01 0.02 0.02 0.03 0.03 0.03 0.04 0.05 0.05 0.06 0.07 0.09 0.08 0.08 0.08 0.07 0.07 0.06 0.06 0.06 0.05 0.03 0.02 0.02 0.02 0.01 0.01
0.00 0.00 0.00 0.00 0.00 0.00 0.00 0.01 0.01 0.00 0.00 0.00 0.00 0.00 0.01 0.01 0.02 0.01 0.02 0.02 0.02 0.03 0.04 0.04 0.04 0.05 0.05 0.08 0.10 0.08 0.07 0.08 0.07 0.07 0.06 0.06 0.07 0.07 0.05 0.04 0.04 0.04 0.03 0.03
0.00 0.00 0.00 0.00 0.00 0.00 0.00 0.00 0.01 0.00 0.00 0.00 0.00 0.00 0.01 0.01 0.01 0.01 0.01 0.01 0.01 0.02 0.03 0.03 0.03 0.04 0.05 0.05 0.06 0.07 0.06 0.07 0.07 0.06 0.06 0.05 0.05 0.07 0.06 0.05 0.05 0.04 0.04 0.04
0.00 0.00 0.00 0.01 0.01 0.00 0.00 0.00 0.01 0.01 0.00 0.00 0.00 0.00 0.00 0.01 0.01 0.01 0.01 0.01 0.01 0.01 0.01 0.01 0.02 0.03 0.03 0.04 0.04 0.06 0.06 0.06 0.06 0.06 0.06 0.05 0.05 0.05 0.06 0.05 0.04 0.04 0.04 0.04
0.00 0.00 0.00 0.01 0.01 0.00 0.00 0.00 0.00 0.01 0.00 0.00 0.00 0.00 0.00 0.00 0.01 0.01 0.01 0.01 0.02 0.01 0.01 0.01 0.01 0.01 0.01 0.02 0.02 0.03 0.04 0.05 0.06 0.06 0.06 0.05 0.05 0.05 0.06 0.06 0.04 0.03 0.03 0.03
0.00 0.00 0.00 0.00 0.00 0.00 0.00 0.00 0.00 0.01 0.00 0.00 0.00 0.00 0.00 0.00 0.01 0.01 0.01 0.02 0.02 0.01 0.01 0.01 0.01 0.02 0.02 0.01 0.01 0.02 0.04 0.07 0.09 0.10 0.07 0.05 0.04 0.03 0.03 0.03 0.03 0.03 0.02 0.02
0.00 0.01 0.01 0.01 0.00 0.01 0.00 0.00 0.00 0.00 0.00 0.00 0.00 0.00 0.00 0.00 0.01 0.01 0.01 0.02 0.02 0.02 0.02 0.02 0.02 0.02 0.02 0.03 0.02 0.02 0.05 0.09 0.11 0.07 0.06 0.03 0.02 0.02 0.02 0.01 0.01 0.01 0.01 0.01
0.00 0.00 0.00 0.01 0.01 0.00 0.00 0.00 0.00 0.00 0.00 0.00 0.00 0.00 0.00 0.00 0.01 0.01 0.01 0.01 0.01 0.03 0.04 0.03 0.02 0.02 0.02 0.02 0.03 0.04 0.04 0.05 0.04 0.03 0.04 0.03 0.02 0.01 0.01 0.01 0.02 0.01 0.01 0.01
0.00 0.00 0.00 0.00 0.00 0.00 0.00 0.00 0.00 0.00 0.00 0.00 0.00 0.00 0.01 0.01 0.01 0.01 0.01 0.01 0.01 0.05 0.03 0.02 0.02 0.02 0.02 0.02 0.03 0.03 0.03 0.03 0.03 0.03 0.04 0.04 0.03 0.02 0.03 0.02 0.02 0.02 0.02 0.02
0.00 0.00 0.00 0.00 0.00 0.00 0.00 0.00 0.00 0.00 0.00 0.00 0.00 0.00 0.01 0.01 0.01 0.01 0.01 0.01 0.01 0.02 0.02 0.02 0.02 0.03 0.04 0.04 0.05 0.03 0.02 0.02 0.02 0.02 0.02 0.03 0.03 0.03 0.03 0.03 0.03 0.03 0.03 0.03
0.00 0.00 0.01 0.00 0.00 0.00 0.00 0.00 0.00 0.00 0.00 0.00 0.00 0.00 0.00 0.01 0.01 0.02 0.02 0.01 0.02 0.03 0.03 0.04 0.05 0.07 0.08 0.06 0.06 0.04 0.03 0.02 0.02 0.01 0.01 0.02 0.02 0.02 0.02 0.04 0.03 0.04 0.04 0.04
0.00 0.01 0.01 0.01 0.00 0.00 0.00 0.00 0.00 0.00 0.00 0.00 0.00 0.00 0.01 0.01 0.02 0.02 0.02 0.02 0.02 0.02 0.03 0.04 0.06 0.08 0.07 0.05 0.05 0.04 0.03 0.03 0.03 0.02 0.02 0.01 0.01 0.01 0.01 0.02 0.03 0.05 0.06 0.05
0.00 0.01 0.01 0.01 0.01 0.00 0.00 0.00 0.00 0.00 0.00 0.00 0.00 0.00 0.01 0.01 0.01 0.02 0.02 0.02 0.03 0.03 0.04 0.05 0.06 0.05 0.05 0.04 0.04 0.04 0.03 0.02 0.03 0.03 0.03 0.02 0.01 0.01 0.01 0.01 0.01 0.05 0.10 0.09
0.01 0.01 0.01 0.01 0.01 0.00 0.00 0.00 0.00 0.00 0.00 0.00 0.00 0.00 0.00 0.01 0.01 0.01 0.01 0.01 0.01 0.03 0.05 0.05 0.05 0.06 0.05 0.03 0.02 0.03 0.03 0.02 0.02 0.02 0.03 0.03 0.02 0.01 0.01 0.01 0.01 0.01 0.02 0.05
0.01 0.01 0.01 0.01 0.01 0.00 0.00 0.00 0.00 0.00 0.00 0.00 0.00 0.00 0.01 0.01 0.01 0.01 0.01 0.01 0.01 0.03 0.05 0.06 0.06 0.06 0.04 0.03 0.02 0.02 0.02 0.02 0.01 0.02 0.02 0.02 0.03 0.02 0.01 0.01 0.01 0.01 0.01 0.01
0.01 0.01 0.01 0.01 0.01 0.00 0.00 0.00 0.00 0.00 0.00 0.00 0.00 0.01 0.01 0.02 0.02 0.01 0.01 0.01 0.02 0.03 0.03 0.04 0.04 0.04 0.04 0.04 0.05 0.03 0.02 0.01 0.01 0.02 0.01 0.02 0.02 0.02 0.02 0.02 0.01 0.01 0.02 0.02
0.01 0.01 0.01 0.01 0.00 0.00 0.00 0.00 0.01 0.01 0.01 0.01 0.01 0.01 0.02 0.03 0.03 0.03 0.02 0.02 0.03 0.03 0.02 0.01 0.01 0.01 0.01 0.02 0.03 0.03 0.03 0.02 0.02 0.02 0.02 0.02 0.02 0.01 0.01 0.01 0.02 0.02 0.02 0.02
0.01 0.01 0.01 0.00 0.00 0.00 0.01 0.01 0.01 0.01 0.01 0.01 0.01 0.01 0.02 0.02 0.04 0.07 0.05 0.04 0.04 0.03 0.02 0.01 0.01 0.01 0.01 0.02 0.02 0.02 0.02 0.02 0.01 0.01 0.01 0.01 0.01 0.01 0.01 0.01 0.02 0.02 0.02 0.03
0.01 0.01 0.01 0.01 0.00 0.01 0.01 0.01 0.01 0.01 0.01 0.01 0.01 0.01 0.01 0.02 0.04 0.07 0.07 0.06 0.04 0.03 0.02 0.03 0.02 0.02 0.02 0.02 0.01 0.01 0.01 0.01 0.01 0.01 0.01 0.01 0.01 0.02 0.02 0.02 0.02 0.03 0.03 0.03
MSLP
1009.37 1010.06 1010.59 1010.96 1011.25 1011.53 1011.86 1012.29 1012.82 1013.42 1014.04 1014.58 1014.99 1015.21 1015.24 1015.08 1014.79 1014.43 1014.07 1013.76 1013.54 1013.40 1013.32 1013.29 1013.24 1013.15 1013.02 1012.83 1012.62 1012.41 1012.23 1012.10 1012.02 1011.99 1011.98 1011.96 1011.90 1011.77 1011.55 1011.26 1010.92 1010.56 1010.23 1009.96
1009.41 1009.97 1010.37 1010.68 1010.97 1011.32 1011.80 1012.42 1013.16 1013.96 1014.74 1015.39 1015.84 1016.05 1016.02 1015.78 1015.41 1014.99 1014.59 1014.28 1014.08 1013.98 1013.95 1013.94 1013.89 1013.79 1013.61 1013.37 1013.10 1012.84 1012.62 1012.48 1012.41 1012.40 1012.41 1012.41 1012.35 1012.21 1011.97 1011.65 1011.27 1010.88 1010.51 1010.22
1009.15 1009.57 1009.87 1010.13 1010.44 1010.89 1011.53 1012.35 1013.32 1014.32 1015.26 1016.01 1016.51 1016.70 1016.62 1016.30 1015.86 1015.38 1014.97 1014.66 1014.50 1014.45 1014.46 1014.49 1014.46 1014.35 1014.14 1013.85 1013.53 1013.23 1012.99 1012.84 1012.78 1012.80 1012.85 1012.89 1012.86 1012.73 1012.49 1012.16 1011.75 1011.33 1010.94 1010.61
1008.71 1008.98 1009.19 1009.41 1009.77 1010.34 1011.14 1012.18 1013.35 1014.55 1015.63 1016.47 1017.00 1017.18 1017.04 1016.66 1016.14 1015.62 1015.19 1014.90 1014.77 1014.77 1014.84 1014.91 1014.91 1014.80 1014.58 1014.26 1013.91 1013.57 1013.32 1013.17 1013.14 1013.19 1013.29 1013.37 1013.38 1013.29 1013.07 1012.74 1012.33 1011.89 1011.47 1011.10
1008.21 1008.36 1008.49 1008.70 1009.12 1009.80 1010.77 1012.00 1013.36 1014.72 1015.92 1016.83 1017.37 1017.53 1017.33 1016.88 1016.30 1015.74 1015.28 1015.00 1014.91 1014.96 1015.08 1015.20 1015.23 1015.14 1014.92 1014.59 1014.22 1013.87 1013.60 1013.46 1013.45 1013.53 1013.67 1013.80 1013.86 1013.80 1013.61 1013.30 1012.90 1012.46 1012.03 1011.63
1007.81 1007.86 1007.93 1008.15 1008.63 1009.42 1010.54 1011.91 1013.42 1014.90 1016.18 1017.13 1017.67 1017.78 1017.53 1017.01 1016.38 1015.77 1015.30 1015.02 1014.95 1015.04 1015.21 1015.38 1015.45 1015.38 1015.17 1014.85 1014.47 1014.12 1013.85 1013.70 1013.70 1013.80 1013.96 1014.12 1014.22 1014.20 1014.04 1013.76 1013.39 1012.96 1012.53 1012.13
1007.61 1007.59 1007.64 1007.88 1008.41 1009.29 1010.51 1011.99 1013.59 1015.13 1016.44 1017.39 1017.91 1017.98 1017.67 1017.09 1016.41 1015.76 1015.27 1015.00 1014.94 1015.06 1015.27 1015.47 1015.58 1015.55 1015.36 1015.06 1014.69 1014.32 1014.05 1013.89 1013.88 1013.97 1014.14 1014.30 1014.42 1014.42 1014.30 1014.06 1013.72 1013.33 1012.92 1012.53
1007.65 1007.60 1007.65 1007.92 1008.50 1009.44 1010.71 1012.24 1013.86 1015.40 1016.70 1017.62 1018.09 1018.11 1017.75 1017.13 1016.42 1015.75 1015.25 1014.98 1014.93 1015.07 1015.30 1015.54 1015.68 1015.68 1015.52 1015.23 1014.87 1014.51 1014.22 1014.05 1014.00 1014.06 1014.20 1014.35 1014.46 1014.48 1014.38 1014.17 1013.88 1013.53 1013.16 1012.81
1007.90 1007.86 1007.93 1008.24 1008.86 1009.82 1011.10 1012.60 1014.18 1015.66 1016.90 1017.75 1018.16 1018.14 1017.75 1017.11 1016.39 1015.73 1015.23 1014.97 1014.93 1015.08 1015.33 1015.58 1015.76 1015.79 1015.66 1015.40 1015.06 1014.70 1014.40 1014.19 1014.10 1014.11 1014.20 1014.31 1014.38 1014.39 1014.31 1014.13 1013.88 1013.58 1013.27 1012.98
1008.26 1008.27 1008.41 1008.75 1009.38 1010.33 1011.56 1012.98 1014.46 1015.83 1016.95 1017.72 1018.07 1018.01 1017.61 1017.00 1016.31 1015.68 1015.21 1014.97 1014.95 1015.11 1015.37 1015.64 1015.84 1015.90 1015.81 1015.58 1015.27 1014.92 1014.60 1014.36 1014.22 1014.17 1014.19 1014.23 1014.26 1014.24 1014.15 1014.00 1013.78 1013.54 1013.30 1013.07
1008.64 1008.75 1008.96 1009.34 1009.97 1010.86 1011.99 1013.27 1014.58 1015.80 1016.79 1017.45 1017.74 1017.67 1017.30 1016.74 1016.12 1015.57 1015.16 1014.96 1014.97 1015.15 1015.42 1015.71 1015.92 1016.02 1015.97 1015.78 1015.50 1015.17 1014.86 1014.59 1014.40 1014.29 1014.23 1014.21 1014.18 1014.12 1014.01 1013.86 1013.68 1013.49 1013.31 1013.14
1009.00 1009.22 1009.50 1009.92 1010.52 1011.31 1012.29 1013.39 1014.50 1015.53 1016.36 1016.91 1017.16 1017.10 1016.79 1016.33 1015.82 1015.37 1015.06 1014.93 1014.98 1015.18 1015.46 1015.76 1016.00 1016.12 1016.11 1015.98 1015.75 1015.46 1015.15 1014.88 1014.66 1014.49 1014.37 1014.27 1014.18 1014.07 1013.94 1013.79 1013.63 1013.48 1013.34 1013.23
1009.31 1009.65 1010.01 1010.44 1010.97 1011.65 1012.44 1013.32 1014.21 1015.02 1015.68 1016.13 1016.34 1016.32 1016.10 1015.77 1015.41 1015.10 1014.90 1014.86 1014.96 1015.19 1015.49 1015.79 1016.04 1016.20 1016.24 1016.16 1015.98 1015.74 1015.48 1015.21 1014.98 1014.77 1014.60 1014.44 1014.30 1014.15 1013.99 1013.83 1013.68 1013.54 1013.44 1013.36
1009.64 1010.08 1010.49 1010.90 1011.35 1011.86 1012.45 1013.08 1013.73 1014.32 1014.81 1015.17 1015.36 1015.38 1015.28 1015.10 1014.91 1014.76 1014.70 1014.75 1014.91 1015.17 1015.48 1015.79 1016.05 1016.24 1016.32 1016.30 1016.19 1016.01 1015.79 1015.56 1015.33 1015.11 1014.90 1014.70 1014.51 1014.32 1014.13 1013.96 1013.80 1013.67 1013.57 1013.51
1010.04 1010.55 1010.97 1011.34 1011.67 1012.01 1012.37 1012.75 1013.14 1013.52 1013.86 1014.12 1014.30 1014.40 1014.42 1014.41 1014.38 1014.40 1014.47 1014.62 1014.85 1015.14 1015.45 1015.76 1016.03 1016.23 1016.35 1016.38 1016.34 1016.23 1016.07 1015.88 1015.67 1015.45 1015.23 1015.00 1014.78 1014.55 1014.34 1014.14 1013.96 1013.82 1013.72 1013.65
1010.56 1011.10 1011.51 1011.79 1011.98 1012.12 1012.25 1012.38 1012.54 1012.72 1012.91 1013.10 1013.28 1013.45 1013.60 1013.74 1013.90 1014.07 1014.27 1014.52 1014.80 1015.10 1015.42 1015.72 1015.98 1016.19 1016.34 1016.42 1016.43 1016.39 1016.29 1016.14 1015.97 1015.76 1015.54 1015.30 1015.04 1014.79 1014.55 1014.33 1014.13 1013.97 1013.84 1013.74
1011.21 1011.74 1012.08 1012.25 1012.29 1012.23 1012.13 1012.04 1011.98 1011.98 1012.05 1012.19 1012.38 1012.62 1012.89 1013.18 1013.49 1013.81 1014.13 1014.45 1014.78 1015.10 1015.41 1015.69 1015.94 1016.16 1016.32 1016.44 1016.50 1016.51 1016.46 1016.36 1016.22 1016.03 1015.80 1015.55 1015.28 1015.01 1014.74 1014.48 1014.26 1014.06 1013.89 1013.75
1011.91 1012.38 1012.63 1012.67 1012.54 1012.30 1012.01 1011.72 1011.48 1011.34 1011.33 1011.43 1011.64 1011.95 1012.33 1012.75 1013.19 1013.63 1014.05 1014.44 1014.81 1015.14 1015.44 1015.71 1015.95 1016.16 1016.34 1016.48 1016.57 1016.62 1016.62 1016.55 1016.43 1016.25 1016.03 1015.76 1015.47 1015.17 1014.88 1014.59 1014.33 1014.09 1013.88 1013.69
1012.51 1012.89 1013.03 1012.94 1012.67 1012.28 1011.82 1011.38 1011.03 1010.80 1010.73 1010.82 1011.06 1011.44 1011.92 1012.45 1013.00 1013.54 1014.04 1014.49 1014.88 1015.23 1015.53 1015.79 1016.02 1016.23 1016.42 1016.58 1016.70 1016.78 1016.79 1016.75 1016.64 1016.46 1016.23 1015.95 1015.64 1015.31 1014.98 1014.66 1014.37 1014.09 1013.83 1013.59
1012.86 1013.14 1013.17 1012.96 1012.58 1012.07 1011.51 1010.99 1010.57 1010.30 1010.21 1010.32 1010.61 1011.06 1011.61 1012.23 1012.87 1013.49 1014.05 1014.56 1014.99 1015.35 1015.66 1015.93 1016.17 1016.39 1016.59 1016.77 1016.91 1017.00 1017.03 1016.99 1016.88 1016.69 1016.44 1016.14 1015.80 1015.45 1015.09 1014.74 1014.40 1014.09 1013.79 1013.50
1012.83 1013.00 1012.93 1012.64 1012.18 1011.62 1011.02 1010.48 1010.06 1009.80 1009.75 1009.90 1010.25 1010.76 1011.38 1012.07 1012.78 1013.46 1014.07 1014.62 1015.09 1015.49 1015.83 1016.12 1016.39 1016.63 1016.85 1017.05 1017.20 1017.30 1017.34 1017.29 1017.16 1016.96 1016.68 1016.35 1015.98 1015.60 1015.21 1014.83 1014.47 1014.12 1013.79 1013.46
1012.35 1012.43 1012.29 1011.95 1011.46 1010.90 1010.34 1009.84 1009.47 1009.29 1009.30 1009.52 1009.94 1010.51 1011.19 1011.93 1012.68 1013.41 1014.07 1014.66 1015.17 1015.62 1016.00 1016.34 1016.64 1016.92 1017.17 1017.39 1017.56 1017.66 1017.69 1017.63 1017.48 1017.24 1016.94 1016.58 1016.19 1015.78 1015.37 1014.97 1014.59 1014.23 1013.87 1013.52
1011.45 1011.46 1011.27 1010.93 1010.47 1009.97 1009.49 1009.10 1008.84 1008.76 1008.88 1009.19 1009.67 1010.30 1011.02 1011.80 1012.58 1013.33 1014.03 1014.66 1015.21 1015.71 1016.14 1016.54 1016.90 1017.22 1017.51 1017.75 1017.93 1018.03 1018.04 1017.96 1017.78 1017.52 1017.19 1016.80 1016.39 1015.97 1015.55 1015.15 1014.77 1014.40 1014.03 1013.66
1010.24 1010.20 1010.00 1009.69 1009.31 1008.92 1008.57 1008.32 1008.22 1008.27 1008.50 1008.91 1009.46 1010.13 1010.88 1011.68 1012.47 1013.23 1013.95 1014.61 1015.21 1015.76 1016.25 1016.70 1017.12 1017.49 1017.82 1018.08 1018.26 1018.35 1018.35 1018.24 1018.03 1017.74 1017.38 1016.98 1016.56 1016.14 1015.73 1015.34 1014.97 1014.61 1014.25 1013.88
1008.89 1008.82 1008.63 1008.39 1008.12 1007.87 1007.68 1007.61 1007.66 1007.87 1008.22 1008.72 1009.33 1010.03 1010.80 1011.59 1012.37 1013.14 1013.86 1014.54 1015.17 1015.76 1016.31 1016.82 1017.28 1017.69 1018.04 1018.31 1018.49 1018.57 1018.54 1018.40 1018.16 1017.85 1017.47 1017.07 1016.65 1016.25 1015.86 1015.51 1015.17 1014.83 1014.50 1014.14
1007.56 1007.47 1007.33 1007.17 1007.02 1006.93 1006.92 1007.02 1007.24 1007.59 1008.06 1008.63 1009.29 1010.01 1010.77 1011.54 1012.30 1013.05 1013.77 1014.46 1015.11 1015.74 1016.32 1016.87 1017.37 1017.80 1018.16 1018.43 1018.59 1018.65 1018.58 1018.41 1018.15 1017.81 1017.43 1017.04 1016.64 1016.27 1015.93 1015.62 1015.32 1015.03 1014.72 1014.38
Thickness
5756 5744 5736 5743 5748 5750 5748 5744 5740 5749 5762 5758 5752 5752 5759 5765 5765 5762 5761 5762 5761 5763 5765 5765 5763 5761 5759 5757 5753 5751 5748 5745 5742 5738 5734 5731 5729 5729 5728 5727 5727 5727 5726 5726
5739 5736 5749 5754 5752 5749 5745 5738 5738 5746 5758 5754 5747 5747 5755 5759 5760 5760 5759 5759 5759 5758 5758 5759 5758 5756 5755 5753 5750 5747 5744 5742 5740 5737 5734 5730 5727 5725 5724 5723 5723 5723 5723 5722
5735 5744 5755 5751 5747 5743 5742 5738 5740 5740 5746 5748 5744 5737 5745 5753 5757 5758 5758 5757 5757 5756 5754 5754 5754 5752 5751 5748 5747 5746 5742 5739 5737 5734 5731 5727 5723 5721 5719 5719 5719 5718 5719 5719
5738 5747 5750 5747 5744 5744 5735 5751 5748 5742 5730 5721 5731 5712 5734 5742 5745 5750 5752 5753 5753 5754 5753 5752 5750 5749 5748 5746 5744 5742 5739 5736 5733 5730 5727 5723 5719 5716 5715 5714 5714 5715 5715 5714
5736 5746 5746 5742 5748 5750 5745 5753 5745 5738 5726 5715 5718 5710 5720 5734 5736 5743 5748 5751 5751 5752 5751 5749 5748 5746 5745 5742 5740 5737 5734 5731 5728 5726 5722 5719 5716 5714 5712 5711 5710 5710 5710 5710
5740 5751 5752 5752 5756 5756 5752 5742 5731 5719 5711 5699 5711 5706 5710 5723 5735 5741 5746 5748 5749 5749 5748 5746 5745 5743 5740 5737 5735 5732 5729 5726 5723 5721 5718 5715 5713 5711 5709 5707 5706 5705 5705 5705
5729 5740 5750 5756 5746 5747 5740 5718 5696 5694 5685 5691 5709 5707 5712 5735 5742 5743 5744 5745 5745 5745 5744 5741 5740 5738 5735 5733 5730 5726 5724 5720 5718 5716 5713 5711 5709 5708 5705 5703 5702 5701 5700 5701
5710 5713 5739 5748 5744 5734 5730 5720 5694 5684 5681 5688 5702 5702 5720 5741 5744 5745 5744 5742 5741 5740 5739 5738 5737 5735 5732 5728 5724 5721 5718 5715 5713 5711 5710 5707 5705 5703 5702 5701 5699 5698 5698 5698
5706 5711 5739 5747 5749 5740 5725 5713 5716 5693 5687 5683 5690 5705 5722 5737 5738 5739 5739 5737 5735 5735 5735 5733 5732 5730 5727 5724 5720 5717 5713 5710 5708 5706 5704 5702 5701 5699 5698 5697 5697 5695 5695 5695
5717 5710 5728 5739 5742 5736 5731 5716 5699 5687 5674 5672 5686 5695 5704 5723 5727 5730 5730 5730 5731 5731 5730 5729 5727 5725 5722 5720 5716 5712 5709 5705 5703 5701 5700 5698 5696 5695 5694 5694 5692 5692 5691 5691
5719 5706 5713 5722 5721 5718 5718 5709 5695 5681 5681 5671 5670 5688 5721 5723 5726 5725 5726 5728 5727 5726 5726 5725 5723 5721 5718 5714 5710 5706 5703 5700 5697 5695 5693 5692 5691 5690 5689 5688 5688 5688 5687 5687
5711 5697 5692 5706 5721 5725 5721 5710 5695 5685 5679 5674 5671 5687 5726 5725 5725 5724 5724 5725 5725 5723 5721 5719 5716 5714 5711 5707 5704 5700 5698 5695 5693 5690 5688 5686 5685 5685 5684 5683 5683 5683 5682 5682
5708 5692 5680 5687 5698 5709 5709 5705 5696 5686 5674 5666 5668 5688 5719 5719 5720 5720 5719 5719 5718 5716 5714 5711 5708 5706 5703 5700 5698 5695 5693 5691 5688 5684 5682 5680 5679 5678 5678 5678 5678 5678 5677 5676
5711 5687 5681 5677 5684 5695 5697 5699 5694 5686 5672 5670 5677 5691 5705 5708 5710 5712 5713 5713 5711 5709 5707 5704 5700 5698 5696 5695 5692 5690 5688 5686 5683 5679 5676 5674 5674 5674 5673 5673 5673 5673 5672 5671
5701 5684 5686 5689 5696 5697 5696 5695 5693 5689 5684 5679 5686 5689 5698 5703 5706 5708 5708 5707 5705 5703 5701 5698 5695 5692 5690 5688 5686 5684 5683 5681 5678 5675 5672 5670 5670 5669 5669 5668 5668 5667 5667 5667
5686 5680 5681 5682 5688 5690 5688 5690 5691 5689 5688 5686 5687 5689 5701 5702 5703 5702 5701 5700 5698 5696 5695 5693 5691 5688 5685 5683 5681 5679 5677 5675 5672 5669 5667 5666 5664 5664 5663 5663 5662 5661 5661 5661
5672 5671 5665 5663 5674 5679 5671 5682 5684 5684 5686 5686 5682 5688 5695 5695 5696 5697 5696 5695 5693 5692 5690 5687 5685 5682 5680 5677 5676 5674 5672 5670 5667 5664 5662 5660 5658 5657 5657 5657 5656 5655 5655 5655
5666 5658 5649 5651 5661 5654 5669 5685 5685 5683 5684 5685 5686 5687 5689 5690 5692 5693 5692 5689 5688 5686 5684 5681 5679 5676 5674 5672 5670 5668 5666 5664 5661 5659 5657 5655 5653 5651 5651 5650 5650 5650 5649 5649
5664 5655 5643 5638 5642 5650 5667 5677 5677 5673 5675 5683 5681 5682 5683 5684 5685 5684 5686 5685 5682 5681 5679 5677 5675 5671 5669 5666 5665 5662 5659 5658 5656 5654 5652 5650 5648 5646 5645 5644 5644 5644 5643 5644
5653 5649 5639 5632 5637 5638 5657 5675 5680 5673 5663 5677 5676 5674 5674 5674 5667 5672 5679 5677 5675 5674 5672 5670 5667 5664 5661 5659 5658 5656 5652 5651 5650 5649 5647 5645 5643 5642 5640 5639 5638 5638 5638 5638
5640 5634 5630 5627 5629 5638 5658 5669 5671 5652 5655 5670 5669 5668 5667 5665 5666 5669 5671 5670 5669 5667 5665 5663 5659 5656 5655 5653 5651 5649 5647 5645 5644 5644 5642 5639 5638 5637 5636 5634 5633 5632 5632 5632
5630 5626 5623 5619 5621 5632 5657 5658 5652 5652 5660 5662 5663 5663 5662 5661 5662 5662 5662 5661 5661 5659 5658 5656 5652 5650 5648 5647 5645 5643 5640 5639 5638 5637 5636 5634 5633 5632 5631 5628 5627 5627 5626 5626
5626 5627 5624 5624 5630 5643 5649 5651 5654 5653 5653 5655 5655 5657 5656 5655 5655 5655 5654 5652 5652 5651 5650 5648 5646 5644 5642 5641 5639 5636 5635 5634 5632 5631 5629 5628 5627 5625 5624 5622 5621 5620 5620 5620
5627 5626 5622 5623 5633 5639 5643 5645 5648 5649 5649 5650 5651 5651 5651 5648 5648 5648 5647 5644 5643 5643 5642 5641 5639 5636 5635 5634 5633 5631 5629 5628 5626 5625 5623 5622 5620 5619 5617 5616 5615 5615 5614 5614
5623 5620 5618 5619 5627 5632 5638 5640 5642 5644 5644 5644 5645 5645 5644 5642 5641 5641 5639 5638 5637 5636 5636 5635 5633 5631 5629 5628 5626 5625 5623 5621 5620 5618 5617 5615 5614 5613 5612 5611 5610 5610 5610 5610
5614 5613 5612 5614 5621 5621 5626 5632 5634 5634 5636 5637 5636 5637 5637 5636 5635 5634 5632 5632 5631 5630 5629 5628 5627 5625 5623 5621 5619 5618 5617 5615 5614 5612 5611 5610 5609 5608 5607 5606 5605 5605 5605 5605